Regional Weather Roundup
Issued by NWS

Home | Current Version | Previous Version | Graphics & Text | Print | Product List | Glossary On
Versions: 1 2 3 4 5 6 7 8 9 10 11 12 13 14 15 16 17 18 19 20 21 22 23 24 25 26 27 28 29 30 31 32 33 34 35 36 37 38 39 40 41 42 43 44 45 46 47 48 49 50
305
ASUS43 KFSD 271602
RWRSD

WEATHER ROUNDUP FOR SOUTH DAKOTA
NATIONAL WEATHER SERVICE SIOUX FALLS SD
1000 AM CST MON FEB 27 2017

NOTE: "FAIR" INDICATES FEW OR NO CLOUDS BELOW 12,000 FEET WITH NO
SIGNIFICANT WEATHER AND/OR OBSTRUCTIONS TO VISIBILITY.


SDZ001>005-009-010-012>017-271700-
NORTHWEST AND NORTH CENTRAL SOUTH DAKOTA

CITY           SKY/WX    TMP DP  RH WIND       PRES   REMARKS
BUFFALO          N/A     25  22  88 SE8       29.58S WCI  16
FAITH            N/A     26  22  84 VRB3      29.68R
MOBRIDGE       SUNNY     28  21  75 E13       29.73S WCI  17
$$

SDZ012>016-024>037-041>051-057-063-072>074-271700-
SOUTHWEST AND SOUTH CENTRAL SOUTH DAKOTA

CITY           SKY/WX    TMP DP  RH WIND       PRES   REMARKS
RAPID CTY ARPT PTSUNNY   25  15  66 SE3       29.64R
PIERRE         PTSUNNY   32  18  56 S13       29.72F WCI  22
CUSTER         CLOUDY    27  14  58 W8        29.57F WCI  19
ELLSWORTH AFB  CLOUDY    26  16  66 SW5       29.63R WCI  20
PHILIP         CLOUDY    34  17  50 SW12      29.69S WCI  25
PINE RIDGE     CLOUDY    29  17  61 S9        29.67F WCI  20
SPEARFISH      FAIR      32   9  37 NE6       29.60S WCI  26
WINNER         FAIR      35  17  47 S21G28    29.74F WCI  24
$$

SDZ004>011-016>023-039-040-271700-
NORTHEAST SOUTH DAKOTA

CITY           SKY/WX    TMP DP  RH WIND       PRES   REMARKS
ABERDEEN       MOSUNNY   27  21  78 SE12      29.82F WCI  17
WATERTOWN      CLOUDY    28  22  78 S9        29.83F WCI  19
BROOKINGS      CLOUDY    29  22  75 S8        29.87S WCI  21
SISSETON         N/A     24  21  88 SE5       29.86F WCI  18
$$

SDZ017-020-022-023-036>040-048>070-271700-
SOUTHEAST SOUTH DAKOTA

CITY           SKY/WX    TMP DP  RH WIND       PRES   REMARKS
SIOUX FALLS    PTSUNNY   32  22  66 S9        29.91S WCI  24
HURON          MOSUNNY   28  20  71 S10       29.83F WCI  19
CHAMBERLAIN    PTSUNNY   35  21  56 S12       29.79S WCI  27
MITCHELL       MOSUNNY   32  19  58 S6        29.87F WCI  26
YANKTON        SUNNY     25  16  68 E5        29.91S WCI  19
$$

ABBREVIATIONS USED IN REMARKS
   TC - TEMPERATURE IN CELSIUS
  WCI - WIND CHILL INDEX
   HX - HEAT INDEX
  VSB - VISIBILITY





USA.gov is the U.S. government's official web portal to all federal, state and local government web resources and services.